Location: Albany
(35.0170°S, 117.8920°E)
Time: 01:43:54
(UTC+08:00)

Explorer 7 - Pass Details

Date: 26 January 2021
Orbit: 484 x 677 km, 50.3° (Epoch: 01 March)

Event Time Altitude Azimuth Distance (km) Brightness Sun altitude
Rises 18:17:23 0° 241° (WSW) 3,017 12.4 11.3°
Reaches altitude 10° 18:21:12 10° 212° (SSW) 2,072 10.6 10.5°
Maximum altitude 18:23:14 13° 186° (S) 1,887 9.9 10.1°
Drops below altitude 10° 18:25:14 10° 161° (SSE) 2,028 9.7 9.7°
Sets 18:28:53 0° 131° (SE) 2,885 10.2 9.0°
